[[{"header":{"parameterUnit":"m.s-1","parameterCategory":1,"la1":30.2991,"la2":30.254,"lo1":-89.0895,"lo2":-89.0444,"dy":0.0017,"dx":0.0017,"nx":28,"ny":28,"refTime":"2024-04-02T09:00:00:Z","depth":0,"parameterNumber":2,"parameterNumberName":"U-component_of_WINDS"},"data":[0,0,0,0,0,0,0,0,0,0,0,0,0,0,0,0,0,0,0,0,0,0,0,0,0,0,0,0,0,0,0,0,0,0,0,0,0,0,0,0,0,0,0,0,0,0,0,0,0,0,0,0,0,0,0,0,0,0,5.6695,5.6696,0,5.6812,5.6813,5.6814,5.6776,5.6773,5.6771,5.6768,5.6885,5.689,5.6896,0,0,0,0,0,0,0,0,0,0,0,0,0,5.6436,5.6441,5.6694,5.6696,5.6698,5.6812,5.6813,5.6815,5.6776,5.6773,5.677,5.6767,5.6883,5.689,5.6896,0,0,0,0,0,0,0,0,0,0,0,0,0,5.655,5.6442,5.6694,5.6692,5.6693,5.6811,5.6813,5.6815,5.6777,5.6773,5.6769,5.6766,5.6881,5.6889,5.6897,5.7023,0,0,5.6922,5.6926,0,0,0,0,0,0,0,0,5.6544,5.656,5.6691,5.6692,5.6694,5.6775,5.6765,5.6885,5.6778,5.6745,5.6768,5.6764,5.6851,5.6862,5.6892,5.7029,5.7034,5.6923,5.6928,5.6931,5.6934,0,0,0,0,0,0,0,5.6536,5.6554,5.6741,5.6693,5.6695,5.6685,5.6697,5.6787,5.6818,5.6748,5.6745,5.676,5.6851,5.6884,5.6894,5.7036,5.6923,5.693,5.6935,5.6938,5.7285,5.7289,0,0,0,0,0,0,5.6527,5.6548,5.6737,5.6744,5.6608,5.6693,5.6706,5.6753,5.6817,5.6823,5.6763,5.6757,5.6872,5.6885,5.6898,5.7052,5.6931,5.6939,5.6944,5.7281,5.7286,5.729,0,0,0,0,0,0,5.6522,5.6545,5.6732,5.6646,5.6669,5.6701,5.6754,5.6757,5.679,5.6828,5.6833,5.6791,5.6869,5.6887,5.6993,5.7056,5.6943,5.695,5.7275,5.7282,5.7288,5.736,0,0,0,0,0,0,5.6515,5.6543,5.6591,5.6647,5.6674,5.6826,5.6758,5.6762,5.6805,5.6799,5.6856,5.6862,5.6868,5.6981,5.7002,5.7065,5.6956,5.727,5.7278,5.7286,5.7352,5.7368,5.7382,0,0,0,0,0,5.6506,5.6606,5.6594,5.6617,5.6735,5.683,5.6845,5.6851,5.681,5.6859,5.6884,5.686,5.7046,5.6993,5.7015,5.7082,5.7266,5.7276,5.7285,5.7345,5.7365,5.7381,0,0,0,0,0,0,5.6554,5.6613,5.66,5.6722,5.6771,5.6823,5.6885,5.6871,5.6932,5.6924,5.6928,5.6941,5.7051,5.7077,5.7017,5.7209,5.715,5.7164,5.7188,5.7206,5.7221,5.7212,5.6963,0,0,0,0,0,5.658,5.6652,5.6699,5.6801,5.6827,5.6852,5.6893,5.6894,5.6945,5.6966,5.6998,5.7048,5.7118,5.7163,5.723,5.7356,5.7368,5.7413,5.7428,5.744,5.7452,5.7523,5.7544,5.7322,5.7322,5.7322,0,0,5.6631,5.6672,5.6718,5.6812,5.6851,5.6926,5.687,5.6951,5.7007,5.6977,5.7081,5.7107,5.7163,5.7281,5.7334,5.7306,5.7516,5.7452,5.7461,5.7467,5.7535,5.7556,5.7574,5.7329,5.7328,5.7327,0,0,5.6765,5.6803,5.6894,5.6934,5.6994,5.7011,5.7033,5.7088,5.7104,5.7209,5.7189,5.7255,5.7375,5.7416,5.7453,5.7606,5.7587,5.7627,5.7704,5.7773,5.779,5.7806,5.7862,5.7881,5.764,5.764,5.764,0,5.6822,5.6935,5.6941,5.7026,5.7069,5.7048,5.714,5.7178,5.7256,5.7286,5.7254,5.7405,5.7441,5.7569,5.7607,5.7637,5.7663,5.762,5.7788,5.7803,5.7818,5.7871,5.7892,5.7644,5.7644,5.7643,5.7643,0,5.7003,5.7082,5.7148,5.7226,5.7276,5.7364,5.7383,5.7433,5.7431,5.7451,5.7558,5.7601,5.7677,5.7707,5.7704,5.7836,5.7817,5.7786,5.7727,5.7843,5.7893,5.7914,5.7651,5.7649,5.7648,5.7647,0,0,5.7168,5.7251,5.7276,5.7312,5.7378,5.7439,5.7526,5.7602,5.7645,5.77,5.7774,5.7878,5.7851,5.7892,5.7894,5.7955,5.8075,5.7917,5.7918,5.7946,5.8225,5.8248,5.8271,5.8063,5.8067,5.807,5.822,0,5.7308,5.7463,5.7472,5.7612,5.7686,5.7669,5.7745,5.7794,5.7816,5.7881,5.7904,5.7979,5.7937,5.7962,5.8021,5.8048,5.8131,5.8037,5.8132,5.8135,5.8119,5.8297,5.8321,5.8461,5.824,5.8243,5.8246,0,5.7491,5.7555,5.7703,5.7761,5.7792,5.786,5.7932,5.7995,5.805,5.8062,5.8111,5.8105,5.8195,5.8133,5.8258,5.8194,5.8233,5.8252,5.8258,5.8267,5.8197,5.8311,5.8505,5.8526,5.8276,5.8274,5.8272,0,5.7599,5.7721,5.7826,5.7857,5.7927,5.7976,5.8007,5.8059,5.8105,5.8167,5.8197,5.8269,5.8308,5.8364,5.8377,5.8331,5.8502,5.8441,5.8515,5.8515,5.8551,5.8548,5.8754,5.8576,5.8576,5.8575,5.8575,0,5.7754,5.7845,5.7875,5.794,5.8042,5.8053,5.8154,5.8182,5.8229,5.8299,5.8287,5.8353,5.8367,5.8436,5.8447,5.8549,5.8567,5.8579,5.8581,5.858,5.8579,5.8606,5.8597,5.8581,5.858,5.8579,5.8578,0,5.7891,5.7915,5.8028,5.8086,5.8103,5.8176,5.8226,5.8288,5.8309,5.8398,5.8419,5.8452,5.8533,5.8552,5.8647,5.8655,5.8777,5.8769,5.8758,5.8758,5.8831,5.8824,5.9061,5.9093,5.8894,5.8896,5.8897,0,5.7989,5.8059,5.8126,5.8172,5.8207,5.8282,5.8329,5.8343,5.8392,5.8463,5.8517,5.8597,5.8661,5.879,5.8823,5.8896,5.889,5.8969,5.8901,5.8899,5.8893,5.8889,5.8896,5.8981,5.8983,5.8985,5.8986,0,5.816,5.8169,5.8238,5.8313,5.8371,5.8429,5.8486,5.8524,5.8546,5.8603,5.8686,5.8736,5.8835,5.8914,5.8989,5.9021,5.9008,5.9008,5.9029,5.9029,5.902,5.9027,5.8794,5.9002,5.9,5.8999,5.8998,5.8998,5.8281,5.8344,5.8401,5.8479,5.8524,5.8577,5.8639,5.867,5.8739,5.8822,5.8826,5.8917,5.8972,5.9072,5.9108,5.9179,5.9155,5.9185,5.9193,5.92,5.9207,5.9009,5.9193,5.9192,5.9192,5.9192,5.9191,0,5.8452,5.8489,5.8561,5.8642,5.8704,5.8688,5.875,5.8803,5.8883,5.8937,5.9002,5.9098,5.9176,5.9216,5.9293,5.9342,5.9339,5.9362,5.9359,5.9367,5.9224,5.9198,5.9364,5.9364,5.9364,5.9364,5.9364,5.9364,5.8549,5.8655,5.8671,5.8799,5.8835,5.8925,5.8962,5.9012,5.9055,5.9164,5.9229,5.9255,5.9304,5.9385,5.9456,5.9465,5.9495,5.9522,5.9528,5.9394,5.9376,5.936,5.9336,5.9528,5.9528,5.9665,5.9667,5.9668]},{"header":{"parameterUnit":"m.s-1","parameterCategory":1,"la1":30.2991,"la2":30.254,"lo1":-89.0895,"lo2":-89.0444,"dy":0.0017,"dx":0.0017,"nx":28,"ny":28,"refTime":"2024-04-02T09:00:00:Z","depth":0,"parameterNumber":3,"parameterNumberName":"V-component_of_WINDS"},"data":[0,0,0,0,0,0,0,0,0,0,0,0,0,0,0,0,0,0,0,0,0,0,0,0,0,0,0,0,0,0,0,0,0,0,0,0,0,0,0,0,0,0,0,0,0,0,0,0,0,0,0,0,0,0,0,0,0,0,-7.0615,-7.0616,0,-7.0737,-7.0738,-7.0739,-7.07,-7.0697,-7.0694,-7.0692,-7.0812,-7.0818,-7.0823,0,0,0,0,0,0,0,0,0,0,0,0,0,-7.0346,-7.0351,-7.0615,-7.0616,-7.0618,-7.0736,-7.0738,-7.074,-7.07,-7.0697,-7.0694,-7.0691,-7.081,-7.0817,-7.0824,0,0,0,0,0,0,0,0,0,0,0,0,0,-7.0465,-7.0353,-7.0615,-7.0613,-7.0614,-7.0736,-7.0738,-7.074,-7.0701,-7.0697,-7.0693,-7.0689,-7.0808,-7.0816,-7.0825,-7.0955,0,0,-7.085,-7.0854,0,0,0,0,0,0,0,0,-7.0458,-7.0474,-7.0611,-7.0613,-7.0614,-7.0699,-7.0687,-7.0812,-7.0702,-7.0668,-7.0692,-7.0687,-7.0777,-7.0788,-7.0819,-7.0961,-7.0966,-7.0851,-7.0856,-7.086,-7.0862,0,0,0,0,0,0,0,-7.045,-7.0469,-7.0663,-7.0613,-7.0615,-7.0605,-7.0617,-7.0711,-7.0743,-7.067,-7.0668,-7.0683,-7.0777,-7.0811,-7.0822,-7.0967,-7.0851,-7.0858,-7.0864,-7.0867,-7.1223,-7.1227,0,0,0,0,0,0,-7.0441,-7.0462,-7.0659,-7.0666,-7.0525,-7.0613,-7.0627,-7.0676,-7.0742,-7.0748,-7.0686,-7.0681,-7.0799,-7.0812,-7.0826,-7.0984,-7.086,-7.0868,-7.0873,-7.1219,-7.1224,-7.1229,0,0,0,0,0,0,-7.0435,-7.0459,-7.0654,-7.0564,-7.0588,-7.0622,-7.0677,-7.068,-7.0714,-7.0754,-7.0759,-7.0715,-7.0796,-7.0814,-7.0924,-7.0987,-7.0872,-7.0879,-7.1214,-7.122,-7.1226,-7.1299,0,0,0,0,0,0,-7.0428,-7.0457,-7.0507,-7.0565,-7.0593,-7.0751,-7.0681,-7.0685,-7.0729,-7.0723,-7.0782,-7.0788,-7.0795,-7.0911,-7.0932,-7.0997,-7.0886,-7.1208,-7.1217,-7.1224,-7.1291,-7.1308,-7.1322,0,0,0,0,0,-7.0418,-7.0522,-7.051,-7.0534,-7.0657,-7.0755,-7.077,-7.0777,-7.0734,-7.0785,-7.0811,-7.0786,-7.0977,-7.0923,-7.0946,-7.1014,-7.1204,-7.1214,-7.1224,-7.1285,-7.1305,-7.1321,0,0,0,0,0,0,-7.0468,-7.0529,-7.0517,-7.0643,-7.0694,-7.0748,-7.0811,-7.0797,-7.086,-7.0852,-7.0856,-7.087,-7.0983,-7.1009,-7.0948,-7.1144,-7.1084,-7.1099,-7.1123,-7.1142,-7.1157,-7.1147,-7.0893,0,0,0,0,0,-7.0495,-7.057,-7.0619,-7.0725,-7.0751,-7.0777,-7.082,-7.0821,-7.0874,-7.0895,-7.0928,-7.098,-7.1051,-7.1098,-7.1166,-7.1296,-7.1308,-7.1354,-7.1369,-7.1381,-7.1394,-7.1465,-7.1486,-7.1261,-7.1261,-7.1261,0,0,-7.0548,-7.0591,-7.0638,-7.0736,-7.0776,-7.0853,-7.0796,-7.0879,-7.0937,-7.0907,-7.1013,-7.104,-7.1097,-7.1218,-7.1273,-7.1244,-7.1459,-7.1394,-7.1403,-7.1409,-7.1477,-7.1499,-7.1517,-7.1268,-7.1267,-7.1266,0,0,-7.0685,-7.0726,-7.0819,-7.0861,-7.0923,-7.094,-7.0963,-7.102,-7.1037,-7.1144,-7.1124,-7.1191,-7.1314,-7.1357,-7.1394,-7.1551,-7.153,-7.1573,-7.1651,-7.172,-7.1738,-7.1754,-7.181,-7.183,-7.1585,-7.1586,-7.1586,0,-7.0744,-7.0861,-7.0868,-7.0955,-7.0999,-7.0978,-7.1072,-7.1112,-7.1193,-7.1223,-7.119,-7.1345,-7.1382,-7.1513,-7.1552,-7.1583,-7.1608,-7.1565,-7.1735,-7.1751,-7.1766,-7.1819,-7.184,-7.159,-7.159,-7.1589,-7.1589,0,-7.093,-7.1011,-7.1079,-7.116,-7.1211,-7.1301,-7.1322,-7.1373,-7.1371,-7.1391,-7.1501,-7.1545,-7.1622,-7.1654,-7.1651,-7.1785,-7.1765,-7.1734,-7.1673,-7.1792,-7.1842,-7.1862,-7.1597,-7.1595,-7.1594,-7.1593,0,0,-7.11,-7.1186,-7.121,-7.1247,-7.1316,-7.1378,-7.1468,-7.1545,-7.1589,-7.1646,-7.1721,-7.1827,-7.1799,-7.1842,-7.1844,-7.1905,-7.2027,-7.1867,-7.1868,-7.1895,-7.2178,-7.22,-7.2224,-7.2015,-7.2019,-7.2022,-7.2173,0,-7.1243,-7.1401,-7.1412,-7.1555,-7.163,-7.1613,-7.1691,-7.1741,-7.1763,-7.183,-7.1854,-7.1929,-7.1887,-7.1913,-7.1973,-7.1999,-7.2084,-7.1989,-7.2083,-7.2087,-7.2069,-7.225,-7.2274,-7.2414,-7.2192,-7.2196,-7.2198,0,-7.143,-7.1495,-7.1647,-7.1706,-7.1738,-7.1808,-7.1881,-7.1945,-7.2002,-7.2013,-7.2063,-7.2057,-7.2148,-7.2086,-7.2212,-7.2147,-7.2186,-7.2206,-7.2211,-7.2219,-7.2149,-7.2263,-7.2459,-7.248,-7.2229,-7.2227,-7.2224,0,-7.1539,-7.1664,-7.1772,-7.1804,-7.1875,-7.1925,-7.1957,-7.201,-7.2057,-7.212,-7.215,-7.2223,-7.2262,-7.2319,-7.2332,-7.2285,-7.2458,-7.2396,-7.247,-7.247,-7.2506,-7.2503,-7.271,-7.2533,-7.2532,-7.2532,-7.2531,0,-7.1697,-7.179,-7.1822,-7.1887,-7.1992,-7.2003,-7.2105,-7.2134,-7.2182,-7.2252,-7.2241,-7.2308,-7.2322,-7.2391,-7.2402,-7.2505,-7.2523,-7.2535,-7.2536,-7.2535,-7.2534,-7.256,-7.2551,-7.2537,-7.2536,-7.2535,-7.2534,0,-7.1836,-7.1861,-7.1976,-7.2036,-7.2053,-7.2127,-7.2178,-7.2241,-7.2263,-7.2352,-7.2374,-7.2407,-7.2489,-7.2508,-7.2604,-7.2612,-7.2733,-7.2726,-7.2715,-7.2714,-7.2786,-7.2779,-7.3017,-7.3049,-7.2851,-7.2853,-7.2854,0,-7.1935,-7.2007,-7.2075,-7.2122,-7.2157,-7.2233,-7.2282,-7.2296,-7.2346,-7.2418,-7.2472,-7.2552,-7.2617,-7.2747,-7.278,-7.2853,-7.2847,-7.2926,-7.2858,-7.2855,-7.2848,-7.2843,-7.2851,-7.2938,-7.294,-7.2942,-7.2943,0,-7.2108,-7.2117,-7.2188,-7.2264,-7.2322,-7.2382,-7.2439,-7.2478,-7.25,-7.2558,-7.2642,-7.2692,-7.2792,-7.2871,-7.2946,-7.2978,-7.2965,-7.2965,-7.2986,-7.2985,-7.2975,-7.2981,-7.2749,-7.2959,-7.2957,-7.2956,-7.2955,-7.2955,-7.223,-7.2293,-7.2352,-7.2431,-7.2476,-7.253,-7.2593,-7.2624,-7.2695,-7.2778,-7.2782,-7.2873,-7.2929,-7.3028,-7.3065,-7.3136,-7.3112,-7.3142,-7.3149,-7.3156,-7.3163,-7.2965,-7.3149,-7.3149,-7.3149,-7.3148,-7.3148,0,-7.2402,-7.2439,-7.2513,-7.2594,-7.2657,-7.2641,-7.2704,-7.2757,-7.2838,-7.2893,-7.2958,-7.3054,-7.3132,-7.3172,-7.3249,-7.3298,-7.3294,-7.3318,-7.3314,-7.3322,-7.318,-7.3154,-7.332,-7.332,-7.332,-7.332,-7.332,-7.332,-7.2499,-7.2606,-7.2622,-7.2752,-7.2788,-7.2879,-7.2916,-7.2966,-7.301,-7.3119,-7.3185,-7.3211,-7.3259,-7.334,-7.3411,-7.342,-7.3449,-7.3476,-7.3482,-7.3349,-7.3331,-7.3315,-7.329,-7.3482,-7.3483,-7.3618,-7.3619,-7.362]}]]